Location: Frohnhof
(49.5635°N, 11.8178°E)
Time: 23:49:00
(UTC+00:00)

Daily predictions for brighter satellites

Satellite Brightness Start Highest point End
(mag) Time Altitude Azimuth Time Altitude Azimuth Time Altitude Azimuth
ATLAS 5 CENTAUR R/B 2.1 17:41:14 10° NW 17:43:47 75° SW 17:50:28 10° SE
ATLAS 3B R/B 4.2 17:42:30 10° NW 17:47:56 25° N 17:53:31 10° ENE
Iridium 4 Rocket 3.5 17:43:32 10° S 17:48:24 66° E 17:53:46 10° N
Sich 1 Rocket 4.5 17:45:58 10° SSE 17:49:50 29° E 17:53:45 10° NNE
SJ-6B 4.3 17:47:21 10° ESE 17:49:56 18° ENE 17:52:32 10° NNE
USA 238 DEB 4.4 17:43:52 10° NW 17:50:39 45° NNE 17:57:42 10° ESE
USA 238 4.4 17:43:58 10° NW 17:50:45 45° NNE 17:57:47 10° ESE
ATLAS CENTAUR R/B 3.3 17:50:16 10° W 17:53:35 26° NW 17:56:49 10° NNE
Cosmos 2263 Rocket 2.3 17:50:51 10° S 17:56:17 57° ESE 18:01:45 10° NE
Meteor 2-9 Rocket 4.3 17:53:35 10° S 17:59:21 63° E 18:05:05 10° NNE
USA 102 4.1 17:54:45 10° SE 18:00:59 76° ENE 18:04:10 10° NNW
SL-08 RB Rocket 4.3 17:57:12 10° SE 18:01:26 38° ENE 18:05:39 10° N
Cosmos 1844 Rocket 4.1 18:00:59 10° SE 18:04:11 16° E 18:07:24 10° ENE
CZ-2C R/B 3.2 17:59:04 10° SSE 18:04:19 89° WSW 18:09:54 10° NNW
SJ 16-02 2.0 18:00:36 10° SSW 18:04:56 61° WNW 18:09:18 10° NNE
Cosmos 990 Rocket 3.9 18:00:06 10° SSW 18:05:14 81° ESE 18:10:25 10° NNE
Cosmos 2227 4.2 18:00:09 10° SSW 18:05:51 71° ESE 18:11:34 10° NNE
Cosmos 1464 Rocket 4.4 18:00:52 10° SSE 18:06:26 38° E 18:12:03 10° NNE
ISS -1.9 18:04:37 10° S 18:06:43 16° SE 18:08:14 12° ESE
Abrixas rocket 2.1 18:06:13 10° WSW 18:08:59 50° SSE 18:11:15 14° E
Cosmos 1943 3.4 18:04:11 10° NNW 18:09:50 78° WSW 18:15:29 10° SSE
Okean 2 Rocket 3.9 18:06:09 10° SSE 18:10:03 30° E 18:13:58 10° NNE
SJ-11-01 4.3 18:05:55 10° SSE 18:10:39 88° ENE 18:15:24 10° NNW
NOSS 8 (F) 4.1 18:08:36 10° SW 18:11:48 84° NW 18:14:49 10° NE
Okean-O 4.2 18:08:50 10° SSW 18:13:00 39° W 18:17:10 10° NNW
Lacrosse 5 rocket 2.3 18:09:39 10° W 18:13:48 50° NNW 18:18:10 10° NE
Ariane Rocket 3.3 18:11:17 10° SE 18:16:06 46° ENE 18:20:57 10° N
Cosmos 1437 3.1 18:14:46 10° NNW 18:17:45 61° W 18:20:42 10° S
NOSS 3-2 (A) 4.2 18:12:02 10° NW 18:19:13 61° NE 18:26:32 13° ESE
Meteor 1-21 4.4 18:14:58 10° NNW 18:20:36 79° W 18:26:11 10° S
NOSS 2-2 (C) 3.8 18:17:49 10° S 18:20:59 32° ESE 18:24:27 10° ENE
USA 116 3.7 18:18:46 10° N 18:22:07 73° WNW 18:25:48 10° SSW
Cosmos 1300 Rocket 4.0 18:19:14 10° SSE 18:23:19 38° E 18:27:25 10° NNE
SPOT 3 Rocket 4.5 18:22:58 14° ESE 18:26:27 30° ENE 18:30:53 10° N
MetOp-A 4.4 18:22:48 10° SE 18:27:55 47° ENE 18:33:03 10° N
YAOGAN 1 4.2 18:24:35 10° SSW 18:28:37 37° W 18:32:39 10° NNW
HJ-1C 4.3 18:27:46 10° S 18:30:58 49° W 18:34:11 10° NNW
Cosmos 1898 Rocket 3.8 18:27:14 10° SSW 18:32:24 70° WNW 18:37:36 10° NNE
Cosmos 1867 3.6 18:28:01 10° NW 18:33:32 82° SW 18:38:36 12° SSE
CSL-04 Rocket 4.4 18:28:33 10° S 18:33:51 56° W 18:39:17 10° NNW
Cosmos 1891 Rocket 4.4 18:28:00 10° S 18:34:02 63° E 18:40:02 10° NNE
Cosmos 1536 Rocket 3.8 18:33:33 10° N 18:37:51 48° ENE 18:41:16 16° SSE
USA 234 3.9 18:35:32 10° ENE 18:41:22 33° SE 18:47:10 10° SSW
Cosmos 1626 4.0 18:41:09 10° NNE 18:43:18 16° ENE 18:43:18 16° ENE
Meteor 2-5 Rocket 4.5 18:40:15 10° N 18:45:20 34° ENE 18:48:05 22° ESE
DMSP B5D2-2 4.3 18:40:59 10° NNE 18:46:05 46° E 18:51:10 10° S
CREW DRAGON DEMO-1 DEB 3.2 18:43:44 10° WNW 18:46:44 55° N 18:47:59 29° ENE
CZ-4 R/B 4.3 18:47:58 10° SW 18:50:59 19° W 18:54:03 10° NW
Cosmos 2151 Rocket 3.7 18:46:49 10° S 18:51:09 54° E 18:55:32 10° NNE
Cosmos 372 Rocket 3.9 18:46:17 10° S 18:51:28 67° ESE 18:56:41 10° NNE
USA 186 1.9 18:48:48 13° S 18:51:29 71° WSW 18:54:44 10° NNW
Cosmos 1025 Rocket 3.0 18:47:30 10° N 18:51:54 85° E 18:56:09 11° S
NOSS 3-2 (C) 4.1 18:46:07 10° NW 18:53:20 63° NE 18:58:44 23° ESE
Cosmos 2150 Rocket 4.3 18:48:50 10° S 18:53:56 47° ESE 18:59:08 10° NNE
Nadezhda 4 Rocket 3.9 18:52:29 10° N 18:58:39 76° E 19:04:42 10° SSE
Cosmos 1805 4.2 19:00:43 29° ENE 19:00:43 29° ENE 19:03:36 10° NNE
OBJECT-B 0.8 19:01:22 48° ESE 19:01:55 57° ENE 19:05:07 10° N
Cosmos 1937 Rocket 4.3 18:56:59 10° SW 19:02:08 55° WNW 19:07:16 10° NNE
Cosmos 2082 Rocket 4.0 18:58:44 10° N 19:02:19 17° NE 19:04:43 13° ENE
MOS 1 Rocket 3.9 18:58:41 10° N 19:03:07 54° WNW 19:07:20 10° SSW
Cosmos 2034 Rocket 4.0 18:56:53 10° S 19:03:13 71° E 19:09:32 10° NNE
Cosmos 1125 Rocket 3.9 19:00:03 10° S 19:04:56 39° ESE 19:09:51 10° NE
FREGAT/IRIS 2.7 19:05:32 44° SSW 19:06:05 58° WSW 19:08:40 10° NNW
Exosat Rocket 4.0 19:01:07 10° S 19:06:16 38° ESE 19:10:53 10° NE
Cosmos 1674 2.6 19:04:52 10° N 19:08:42 63° ENE 19:09:42 44° SE
COSMOS 2406 4.2 19:05:25 10° NNW 19:10:26 31° NE 19:12:17 26° E
Meteor 1-24 Rocket 4.1 19:07:25 10° N 19:12:36 41° ENE 19:14:11 34° ESE
SL-14 R/B 4.3 19:13:13 10° N 19:16:10 29° NE 19:16:10 29° NE
ERS-1 Rocket 4.5 19:17:24 20° ENE 19:17:41 20° ENE 19:21:14 10° NNE
NOSS 2-2 (E) 3.6 19:14:42 10° SW 19:18:13 62° NW 19:22:22 10° NE
Resurs 01 Rocket 1.7 19:19:16 46° ESE 19:20:14 57° ENE 19:24:37 10° N
H-2A R/B 4.0 19:16:55 10° SSW 19:21:03 26° W 19:25:17 10° NW
ATLAS 2AS CENTAUR R/B 3.9 19:16:29 10° SSE 19:24:48 27° E 19:29:37 10° NE
CZ-2C R/B 2.8 19:18:04 10° NNE 19:23:37 81° WNW 19:29:12 10° SSW
SJ-6B 3.7 19:21:47 18° SSW 19:24:17 44° W 19:27:55 10° NNW
Lacrosse 4 Rocket 3.6 19:23:13 10° N 19:25:22 14° NNE 19:25:54 14° NE
Landsat 7 4.5 19:25:47 36° ENE 19:26:02 36° ENE 19:30:24 10° N
KORONAS-FOTON 3.8 19:22:24 10° N 19:26:21 86° W 19:27:14 53° S
NOSS 2-2 (D) 3.5 19:23:09 10° SW 19:26:40 64° NW 19:30:44 10° NE
Cosmos 1048 Rocket 4.3 19:26:07 10° NNW 19:31:22 65° WSW 19:34:10 28° S
Cosmos 1766 4.1 19:33:40 38° NE 19:33:40 38° NE 19:36:22 10° NNE
SPOT 1/Viking Rocket 4.2 19:33:46 37° ENE 19:34:06 37° ENE 19:38:51 10° N
CENTAUR R/B 3.1 19:26:17 10° NW 19:34:16 86° NE 19:38:32 35° SE
Cosmos 1844 3.6 19:29:41 10° SSW 19:35:18 61° ESE 19:40:52 10° NE
IGS 5A 4.2 19:37:08 38° NE 19:37:08 38° NE 19:40:25 10° N
Cosmos 1634 Rocket 4.0 19:34:24 36° SSE 19:36:50 59° E 19:42:54 10° NNE
ARIANE 5 R/B 2.9 19:37:43 50° ENE 19:37:43 50° ENE 19:41:44 10° N
SWAS 4.3 19:34:17 10° NNW 19:38:37 82° WSW 19:39:04 70° S
ATLAS 3B R/B 3.3 19:33:47 10° NW 19:40:19 46° NE 19:42:49 34° E
Cosmos 2263 Rocket 4.0 19:35:37 10° WSW 19:40:32 31° NW 19:45:31 10° NNE
Cosmos 1269 Rocket 4.0 19:35:23 10° NNW 19:40:41 63° ENE 19:41:30 55° ESE
Cosmos 2285 Rocket 3.9 19:35:20 10° S 19:41:34 67° ESE 19:47:52 10° NNE
USA 238 DEB 4.1 19:34:54 10° NW 19:42:02 67° SW 19:45:38 33° SSE
USA 238 4.0 19:35:01 10° NW 19:42:09 67° SW 19:45:43 33° SSE
MetOp-B 4.1 19:41:10 53° ESE 19:42:11 65° ENE 19:47:30 10° N
ISS -1.9 19:39:42 10° WSW 19:41:14 24° SW 19:41:14 24° SW
Abrixas rocket 4.2 19:41:19 10° W 19:42:32 22° W 19:42:32 22° W
Cosmos 1844 Rocket 2.5 19:41:40 10° SSW 19:47:14 89° ESE 19:52:53 10° NNE
Spot 2 Rocket 3.6 19:48:07 53° ENE 19:48:13 53° ENE 19:53:07 10° N
Cosmos 1627 Rocket 4.5 19:44:29 10° N 19:50:56 89° WSW 19:53:34 39° S
Okean 1 Rocket 3.1 19:51:22 57° SSW 19:52:13 79° WNW 19:56:44 10° N
Lacrosse 5 rocket 3.0 19:49:48 10° WNW 19:53:45 31° N 19:55:13 25° NNE
Cosmos 1092 Rocket 4.2 19:50:56 10° NNW 19:57:01 67° W 20:00:14 29° SSW
Cosmos 2026 Rocket 4.1 19:58:13 10° NNW 20:04:35 77° W 20:06:55 42° S
CZ-2C R/B 3.9 20:00:28 10° N 20:04:54 68° WNW 20:05:30 59° WSW
Meteor 2-19 Rocket 4.4 19:59:15 10° N 20:05:20 61° ENE 20:05:39 60° E
SPOT 3 Rocket 4.3 20:03:38 31° SSW 20:05:40 46° W 20:10:39 10° NNW
Cosmos 1833 Rocket 2.9 20:02:10 10° NNW 20:07:43 53° NE 20:07:46 53° ENE
Cosmos 2251 Rocket 4.4 20:08:19 10° NNW 20:12:49 38° NE 20:12:49 38° NE
Terra 3.2 20:19:13 29° NNE 20:19:13 29° NNE 20:22:08 10° N
Cosmos 1626 3.7 20:15:27 10° NNW 20:17:51 33° NW 20:17:51 33° NW
Cosmos 2279 Rocket 3.8 20:20:51 76° SE 20:21:07 78° E 20:27:24 10° NNE
Cosmos 1892 Rocket 4.3 20:16:51 10° NNW 20:20:06 49° NNW 20:20:06 49° NNW
Cosmos 2142 Rocket 4.4 20:21:19 66° S 20:22:19 90° E 20:28:36 10° N
USA 234 3.1 20:19:23 16° ENE 20:24:54 90° SSE 20:31:28 10° WSW
OBJECT-B 4.1 20:34:34 10° W 20:34:38 10° W 20:35:00 10° W
SPOT 5 3.6 20:40:09 53° N 20:40:09 53° N 20:44:15 10° NNW
Cosmos 2082 Rocket 2.7 20:42:01 10° NNW 20:46:33 52° N 20:46:33 52° N
COSMOS 2406 3.7 20:49:32 10° NW 20:54:20 53° W 20:54:20 53° W
ERS-1 Rocket 3.9 20:57:24 46° NNW 20:57:24 46° NNW 21:01:01 10° NNW
Resurs 01 Rocket 3.9 20:56:51 18° W 20:57:05 19° W 21:00:13 10° NW
Cosmos 2098 Rocket 4.2 20:56:42 10° NNW 21:03:50 69° W 21:03:50 69° W
Lacrosse 4 Rocket 3.8 21:00:48 10° NNW 21:02:11 20° NNW 21:02:11 20° NNW
Cosmos 2266 Rocket 4.2 21:00:30 10° NNW 21:05:35 63° NNW 21:05:35 63° NNW
Cosmos 1655 Rocket 4.4 21:06:44 10° NNW 21:12:30 56° W 21:12:30 56° W
ATLAS 2AS CENTAUR R/B 2.9 21:11:59 64° SW 21:13:25 84° NW 21:21:19 10° NE
Cosmos 2278 Rocket 3.8 21:22:33 26° NNE 21:22:33 26° NNE 21:24:56 10° NNE
CENTAUR R/B 4.3 21:17:35 10° NW 21:24:33 31° WSW 21:25:44 30° SW
ATLAS 3B R/B 3.2 21:24:33 10° NW 21:30:03 52° W 21:30:03 52° W
Lacrosse 5 rocket 4.1 21:29:25 10° NW 21:30:50 19° NW 21:30:50 19° NW
Terra 4.2 21:58:06 20° NW 21:58:06 20° NW 21:59:51 10° NNW
USA 234 3.9 22:01:23 10° ENE 22:07:40 52° NNW 22:13:57 10° W
Cosmos 2082 Rocket 4.5 22:26:46 10° NW 22:28:23 17° WNW 22:28:23 17° WNW
Cosmos 1943 Rocket 4.4 22:35:45 17° NE 22:35:45 17° NE 22:37:01 10° NE
Cosmos 2369 Rocket 4.4 22:59:19 19° NE 22:59:19 19° NE 23:00:55 10° NE
CZ-4C R/B 4.1 23:02:00 27° NNE 23:02:00 27° NNE 23:05:01 10° NE
Cosmos 2278 Rocket 4.3 23:04:22 21° NW 23:04:22 21° NW 23:08:27 10° N
ATLAS 2AS CENTAUR R/B 4.2 22:59:09 14° W 23:05:27 37° NNW 23:12:32 10° NE
Cosmos 2227 Rocket 4.2 23:38:23 10° N 23:42:44 22° NE 23:43:29 21° NE
USA 234 4.0 23:43:52 10° E 23:50:04 49° N 23:56:19 10° WNW
